This demonstration page uses our WeatherBlox Daily Observations layout. Learn more.

Left ArrowRight Arrow

39.01783, -85.05884

Hourly Observations for September 28, 2018

Temp ( °F °C ) Dew Point ( °F °C ) Humidity (%) Winds ( mph kmh ) Pressure ( in mb ) Visibility ( mi km ) Precip ( " mm )
12:43 am 00:43 Mostly Clear with Mist and Fog 51 10.6 51 10.6 100 100 S 3 6 30.06 1018 4 6 N/A
12:52 am 00:52 Clear with Patchy Fog 49 9.4 49 9.4 100 100 S 3 6 30.05 1018 5 8 N/A
1:52 am 01:52 Clear with Patchy Fog 50 10 50 10 100 100 N N/A 30.04 1017 5 8 N/A
2:28 am 02:28 Mostly Clear with Mist and Fog 49 9.4 49 9.4 100 100 N N/A 30.09 1019 5 8 N/A
2:52 am 02:52 Clear with Patchy Fog 50 10 49 9.4 96 96 N N/A 30.06 1018 6 10 N/A
3:52 am 03:52 Clear with Patchy Fog 50 10 50 10 100 100 N N/A 30.06 1018 6 10 N/A
4:52 am 04:52 Clear with Patchy Fog 48 8.9 48 8.9 100 100 N N/A 30.07 1018 5 8 N/A
5:18 am 05:18 Mostly Clear with Patchy Fog 47 8.3 46 7.8 97 97 N N/A 30.12 1020 5 8 N/A
5:52 am 05:52 Mostly Clear with Patchy Fog 48 8.9 48 8.9 100 100 N N/A 30.09 1019 4 6 N/A
6:23 am 06:23 Mostly Clear with Mist and Fog 46 7.8 46 7.8 100 100 N N/A 30.12 1020 2 2 N/A
6:52 am 06:52 Mostly Clear with Fog 47 8.3 47 8.3 100 100 N N/A 30.11 1020 8 13 N/A
7:52 am 07:52 Partly Cloudy with Patchy Fog 46 7.8 46 7.8 100 100 N N/A 30.13 1020 8 13 N/A
8:52 am 08:52 Partly Cloudy with Patchy Fog 50 10 N/A N/A S 3 6 30.14 1021 8 13 N/A
9:52 am 09:52 Mostly Sunny 56 13.3 55 12.8 97 97 SSW 6 9 30.14 1021 10 16 N/A
10:52 am 10:52 Mostly Sunny 60 15.6 54 12.2 80 80 S 6 9 30.15 1021 10 16 N/A
11:52 am 11:52 Mostly Sunny 63 17.2 53 11.7 70 70 SSW 5 7 30.15 1021 10 16 N/A
12:52 pm 12:52 Mostly Sunny 66 18.9 53 11.7 63 63 SW 7 11 30.14 1021 10 16 N/A
1:52 pm 13:52 Partly Cloudy 68 20 53 11.7 59 59 VRB 7 11 30.14 1021 10 16 N/A
2:52 pm 14:52 Partly Cloudy 69 20.6 54 12.2 59 59 S 7 11 30.12 1020 10 16 N/A
3:52 pm 15:52 Mostly Sunny 69 20.6 53 11.7 57 57 S 7 11 30.11 1020 10 16 N/A
4:52 pm 16:52 Mostly Sunny 71 21.7 55 12.8 57 57 WSW 7 11 30.11 1020 10 16 N/A
5:52 pm 17:52 Mostly Sunny 69 20.6 54 12.2 59 59 SSW 7 11 30.12 1020 10 16 N/A
6:52 pm 18:52 Mostly Sunny 67 19.4 55 12.8 66 66 SW 5 7 30.12 1020 10 16 N/A
7:52 pm 19:52 Partly Cloudy 64 17.8 55 12.8 73 73 WSW 3 6 30.14 1021 10 16 N/A
8:52 pm 20:52 Clear 57 13.9 55 12.8 93 93 N N/A 30.16 1022 10 16 N/A
9:52 pm 21:52 Clear 57 13.9 55 12.8 93 93 SSW 3 6 30.16 1022 10 16 N/A
10:52 pm 22:52 Clear 56 13.3 55 12.8 97 97 N N/A 30.18 1022 10 16 N/A
11:52 pm 23:52 Clear 57 13.9 55 12.8 93 93 N N/A 30.19 1022 10 16 N/A

Powered by AerisWeather